Location: Cowley
(49.5667°N, 114.0667°W)
Time: 10:23:19
(UTC+00:00)

Envisat - Pass Details

Date: 07 December 2021
Orbit: 764 x 766 km, 98.2° (Epoch: 23 January)

Event Time Altitude Azimuth Distance (km) Brightness Sun altitude
Rises 13:39:08 0° 8° (N) 3,247 6.2 -15.3°
Reaches altitude 10° 13:41:35 10° 360° (N) 2,316 5.3 -14.9°
Maximum altitude 13:46:13 36° 295° (WNW) 1,196 3.5 -14.2°
Drops below altitude 10° 13:50:49 10° 230° (SW) 2,300 5.2 -13.5°
Sets 13:53:15 0° 222° (SW) 3,222 6.0 -13.1°
